ASA67 PASI-PAJN

Flight info

Callsign ASA67
Flight time 0h 23m
Altitude 17000
Route HAWRD5 TNAKY
Aircraft B737/M-SDE2E3FGHIRWXY/LB1

Departure

Time 2026-04-22 05:37
Airport Sitka Rocky Gutierrez Airport (PASI)

Arrival

Time 2026-04-22 06:00
Airport Juneau International Airport (PAJN)
Time Latitude Longitude Altitude Speed Heading
2026-04-22 05:07 57.05235 -135.36602 34 ft 0 kts 76°
2026-04-22 05:29 57.05233 -135.36623 34 ft 2 kts 76°
2026-04-22 05:29 57.05229 -135.36650 34 ft 2 kts 76°
2026-04-22 05:29 57.05225 -135.36678 33 ft 2 kts 76°
2026-04-22 05:29 57.05221 -135.36706 34 ft 2 kts 76°
2026-04-22 05:30 57.05217 -135.36734 34 ft 2 kts 76°
2026-04-22 05:30 57.05215 -135.36762 34 ft 2 kts 100°
2026-04-22 05:30 57.05219 -135.36790 34 ft 2 kts 121°
2026-04-22 05:30 57.05224 -135.36804 34 ft 0 kts 135°
2026-04-22 05:32 57.05199 -135.36758 33 ft 12 kts 135°
2026-04-22 05:32 57.05132 -135.36639 33 ft 14 kts 135°
2026-04-22 05:32 57.05064 -135.36517 33 ft 13 kts 135°
2026-04-22 05:32 57.05000 -135.36400 33 ft 13 kts 135°
2026-04-22 05:33 57.04926 -135.36315 34 ft 13 kts 167°
2026-04-22 05:33 57.04840 -135.36311 34 ft 12 kts 180°
2026-04-22 05:33 57.04768 -135.36245 35 ft 12 kts 135°
2026-04-22 05:33 57.04697 -135.36116 35 ft 18 kts 135°
2026-04-22 05:34 57.04597 -135.35935 34 ft 22 kts 135°
2026-04-22 05:34 57.04484 -135.35731 33 ft 23 kts 135°
2026-04-22 05:34 57.04374 -135.35532 35 ft 22 kts 135°
2026-04-22 05:34 57.04266 -135.35338 34 ft 21 kts 135°
2026-04-22 05:35 57.04163 -135.35149 35 ft 21 kts 134°
2026-04-22 05:35 57.04073 -135.34976 33 ft 11 kts 131°
2026-04-22 05:35 57.04049 -135.34961 34 ft 2 kts 241°
2026-04-22 05:35 57.04058 -135.34984 33 ft 2 kts 315°
2026-04-22 05:36 57.04059 -135.34986 35 ft 0 kts 315°
2026-04-22 05:36 57.04093 -135.35047 34 ft 31 kts 316°
2026-04-22 05:36 57.04458 -135.35707 34 ft 113 kts 315°
2026-04-22 05:37 57.05157 -135.36955 277 ft 155 kts 315°
2026-04-22 05:37 57.05961 -135.38385 1077 ft 165 kts 314°
2026-04-22 05:37 57.06741 -135.39969 1871 ft 171 kts 307°
2026-04-22 05:37 57.07532 -135.41746 2623 ft 189 kts 307°
2026-04-22 05:38 57.08392 -135.43670 3297 ft 202 kts 307°
2026-04-22 05:38 57.09358 -135.45809 3646 ft 233 kts 308°
2026-04-22 05:38 57.10490 -135.48055 4486 ft 241 kts 316°
2026-04-22 05:38 57.11785 -135.50016 5607 ft 242 kts 319°
2026-04-22 05:39 57.13098 -135.51945 6744 ft 241 kts 320°
2026-04-22 05:39 57.14569 -135.53331 7848 ft 246 kts 341°
2026-04-22 05:39 57.16281 -135.53623 9070 ft 253 kts 358°
2026-04-22 05:39 57.18040 -135.52943 10280 ft 261 kts
2026-04-22 05:40 57.19856 -135.51964 10895 ft 285 kts
2026-04-22 05:40 57.21868 -135.50873 11142 ft 316 kts
2026-04-22 05:40 57.24027 -135.49709 11860 ft 328 kts
2026-04-22 05:40 57.26230 -135.48522 12773 ft 333 kts
2026-04-22 05:41 57.28468 -135.47332 13829 ft 336 kts
2026-04-22 05:41 57.30730 -135.46138 14796 ft 340 kts
2026-04-22 05:41 57.33010 -135.44935 15790 ft 344 kts
2026-04-22 05:41 57.35338 -135.43714 16577 ft 350 kts
2026-04-22 05:42 57.37683 -135.42475 16952 ft 352 kts
2026-04-22 05:42 57.40097 -135.41214 16958 ft 366 kts
2026-04-22 05:42 57.42534 -135.39944 16980 ft 371 kts
2026-04-22 05:42 57.45002 -135.38608 17001 ft 370 kts
2026-04-22 05:43 57.47479 -135.37281 16977 ft 370 kts
2026-04-22 05:43 57.49952 -135.35960 17034 ft 369 kts
2026-04-22 05:43 57.52425 -135.34638 16998 ft 371 kts
2026-04-22 05:43 57.54910 -135.33366 16984 ft 369 kts
2026-04-22 05:44 57.57379 -135.32097 16976 ft 370 kts
2026-04-22 05:44 57.59829 -135.30775 16795 ft 363 kts
2026-04-22 05:44 57.62245 -135.29460 16264 ft 359 kts
2026-04-22 05:44 57.64616 -135.28168 15652 ft 349 kts
2026-04-22 05:45 57.66857 -135.26930 15670 ft 333 kts
2026-04-22 05:45 57.69080 -135.25728 15678 ft 338 kts
2026-04-22 05:45 57.71370 -135.24506 15680 ft 345 kts
2026-04-22 05:45 57.73689 -135.23264 15677 ft 345 kts
2026-04-22 05:46 57.75955 -135.22038 15669 ft 332 kts
2026-04-22 05:46 57.78140 -135.20848 15463 ft 325 kts
2026-04-22 05:46 57.80338 -135.19669 15236 ft 336 kts
2026-04-22 05:46 57.82645 -135.18437 14619 ft 351 kts
2026-04-22 05:47 57.84990 -135.17172 13935 ft 349 kts
2026-04-22 05:47 57.87303 -135.15913 13157 ft 343 kts 10°
2026-04-22 05:47 57.89572 -135.14665 12507 ft 337 kts 10°
2026-04-22 05:47 57.91806 -135.13438 11863 ft 332 kts 10°
2026-04-22 05:48 57.94014 -135.12239 11212 ft 328 kts 10°
2026-04-22 05:48 57.96205 -135.11051 10565 ft 326 kts 11°
2026-04-22 05:48 57.98314 -135.09895 10418 ft 305 kts 10°
2026-04-22 05:48 58.00287 -135.08861 10310 ft 287 kts 10°
2026-04-22 05:49 58.02154 -135.07821 10179 ft 274 kts 10°
2026-04-22 05:49 58.03965 -135.06705 10066 ft 276 kts 19°
2026-04-22 05:49 58.05489 -135.04389 9895 ft 292 kts 46°
2026-04-22 05:49 58.06413 -135.00895 9630 ft 305 kts 69°
2026-04-22 05:50 58.06935 -134.97047 9374 ft 307 kts 72°
2026-04-22 05:50 58.07399 -134.93136 9087 ft 303 kts 73°
2026-04-22 05:50 58.07844 -134.89294 8827 ft 295 kts 74°
2026-04-22 05:50 58.08285 -134.85547 8554 ft 290 kts 74°
2026-04-22 05:51 58.08730 -134.81836 8310 ft 290 kts 74°
2026-04-22 05:51 58.09181 -134.78120 8058 ft 290 kts 74°
2026-04-22 05:51 58.09634 -134.74403 7807 ft 290 kts 75°
2026-04-22 05:51 58.10089 -134.70685 7555 ft 290 kts 75°
2026-04-22 05:52 58.10542 -134.66978 7297 ft 288 kts 75°
2026-04-22 05:52 58.10989 -134.63320 7050 ft 283 kts 75°
2026-04-22 05:52 58.11426 -134.59726 6803 ft 279 kts 76°
2026-04-22 05:52 58.11859 -134.56160 6540 ft 278 kts 76°
2026-04-22 05:53 58.12291 -134.52599 6274 ft 278 kts 76°
2026-04-22 05:53 58.12722 -134.49034 5971 ft 278 kts 76°
2026-04-22 05:53 58.13146 -134.45520 5676 ft 276 kts 76°
2026-04-22 05:53 58.13567 -134.42009 5347 ft 271 kts 76°
2026-04-22 05:54 58.13978 -134.38581 5083 ft 265 kts 76°
2026-04-22 05:54 58.14513 -134.35299 4838 ft 257 kts 64°
2026-04-22 05:54 58.15461 -134.32508 4604 ft 248 kts 45°
2026-04-22 05:54 58.16752 -134.30491 4421 ft 234 kts 28°
2026-04-22 05:55 58.18196 -134.29318 4193 ft 220 kts 13°
2026-04-22 05:55 58.19686 -134.28879 4014 ft 215 kts
2026-04-22 05:55 58.21181 -134.29037 3791 ft 215 kts 347°
2026-04-22 05:55 58.22610 -134.29803 3633 ft 212 kts 334°
2026-04-22 05:56 58.23862 -134.31135 3423 ft 201 kts 322°
2026-04-22 05:56 58.24875 -134.32873 3249 ft 195 kts 309°
2026-04-22 05:56 58.25764 -134.34772 3073 ft 191 kts 309°
2026-04-22 05:56 58.26651 -134.36633 2901 ft 191 kts 310°
2026-04-22 05:57 58.27548 -134.38506 2649 ft 193 kts 310°
2026-04-22 05:57 58.28446 -134.40385 2347 ft 188 kts 311°
2026-04-22 05:57 58.29295 -134.42160 2068 ft 175 kts 311°
2026-04-22 05:57 58.30100 -134.43845 1846 ft 171 kts 311°
2026-04-22 05:58 58.30953 -134.45417 1585 ft 167 kts 318°
2026-04-22 05:58 58.31785 -134.46716 1380 ft 147 kts 320°
2026-04-22 05:58 58.32544 -134.47884 1138 ft 134 kts 319°
2026-04-22 05:58 58.33267 -134.48963 892 ft 133 kts 321°
2026-04-22 05:59 58.33978 -134.50065 713 ft 130 kts 314°
2026-04-22 05:59 58.34506 -134.51439 551 ft 129 kts 297°
2026-04-22 05:59 58.34832 -134.53026 402 ft 132 kts 288°
2026-04-22 05:59 58.35091 -134.54752 157 ft 138 kts 286°
2026-04-22 06:00 58.35337 -134.56479 34 ft 127 kts 285°
2026-04-22 06:00 58.35524 -134.57831 34 ft 84 kts 285°
2026-04-22 06:00 58.35613 -134.58472 31 ft 26 kts 285°
2026-04-22 06:00 58.35664 -134.58622 30 ft 9 kts 353°
2026-04-22 06:01 58.35723 -134.58623 32 ft 8 kts 360°
2026-04-22 06:01 58.35777 -134.58624 32 ft 6 kts
2026-04-22 06:01 58.35799 -134.58572 33 ft 5 kts 79°
2026-04-22 06:01 58.35812 -134.58508 33 ft 5 kts 53°
2026-04-22 06:02 58.35836 -134.58456 33 ft 5 kts 47°
2026-04-22 06:02 58.35848 -134.58431 33 ft 1 kts 47°
2026-04-22 06:02 58.35849 -134.58429 33 ft 0 kts 47°